BREEZE-KM R/B, 44518

Orbit data source: Space-Track

BREEZE-KM R/B, 44518 is space debris in SSO originally from a launch on Fri, 30 Aug 2019 UTC launched from the Plesetsk Missile And Space Complex (PKMTR). Debris objects in space refer to the collection of defunct objects orbiting the Earth. Examples of debris include non-operational satellites, rocket bodies, and fragments generated from explosions, collisions, or faulty payload assembly.

Loading next visibility...
Identifier
44518, 2019-057B
Orbit
SSO
Country
Flag of CISCIS
Related business
Manufacturer
Khrunichev
Mission
Spacecraft
Bus & Motor
BRIZ, S5.92
Mass
2,370 kg wet, 2,370 kg dry
Launch date (UTC)
2019-08-30 (6 years ago)
Launch vehicle
Unknown
Launch site
Plesetsk Missile And Space Complex (PKMTR)
Object type
Payload
Rocket body
Debris
Shape & HBR
Hex Cyl + 1 Rod, 2.0 m
Radar Cross Section
10.190 m², Large (>1 m²)

Expand to show TLE details & history
Last TLE update: 1 day ago

TLE from 1 day ago
0 BREEZE-KM R/B
1 44518U 19057B   25257.30406653  .00000060  00000-0  38260-4 0  9991
2 44518  99.1263  25.8405 0199961  46.2530 315.5008 14.25413771314244
Epoch: 2025-09-14T07:17Z
TLE epoch observation values (Epoch: 2025-09-14T07:17:51.348Z)
Latitude
-0°
Longitude
-77.14845°
Altitude
708.953 km
Speed
7.554 km/s
True Right ascension
01h 43m 21s
True Declination
0° 00' 00"
Sunlit
Object was in full shadow at epoch
Visualization orbit readout
Latitude
Unknown
Longitude
Unknown
Altitude
Unknown
Speed
Unknown
Apparent Right ascension
Unknown
Apparent Declination
Unknown
Sunlit
N/A
Visualization observer readout
Local Sidereal Time
23:56:10
Azimuth
Unknown
Elevation
Unknown
Doppler factor
Unknown
Orbital elements
Apogee altitude
947.892 km
Perigee altitude
660.652 km
Semi-major axis
7,182.409 km
Eccentricity
0.02
Inclination
99.1263°
RAAN
25.8405°
Arg. of periapsis
46.253°
True anomaly
313.86586°
Mean anomaly
315.5008°
Eccentric anomaly
314.68625°
Mean motion
3.56564 °/min
Orbital period
100.96 mins
BSTAR
0.00003826
Loading maneuver chart data...
Computing Atmospheric mass density...
Loading historical data...
Loading historical data...
Loading historical data...
Loading historical data...
Loading historical data...
Loading historical data...
Loading historical data...
Other satellites on launch #57 in the year 2019 (2019-08-30 UTC)

Documentation

Showing up to 5 results
|